Home > Time Zones > World Clock > Weather > U.S.A. > Nome > Past weeks

Flag for U.S.A. Weather past 2 weeks in Nome, Alaska, U.S.A.

Now
42 °F

Passing clouds.


Feels Like: 37 °F
Forecast: 40 / 51 °F
Wind: 9 mph from North

Location: Nome Airport

Current Time: Sep 19, 2014 at 2:35:11 AM

Latest Report: Sep 19, 2014 at 1:53 AM


Visibility: 10 mi

Pressure: 29.34 "Hg

Humidity: 82%

Dew point: 37 °F

Location of NomeLocation

Historic Weather in Nome — Graph

°F

Nome temperature yesterday

Maximum temperature yesterday: 53 °F (at 2:53 PM)
Minimum temperature yesterday: 43 °F (at 10:53 PM)
Average temperature yesterday: 48 °F

Past Weeks' High & Low Weather Summary

 TemperatureHumidityPressure
High64 °F (Sep 12, 3:53 PM)100% (Sep 9, 1:00 AM)30.18 "Hg (Sep 9, 1:00 AM)
Low33 °F (Sep 6, 5:53 AM)27% (Sep 5, 4:53 PM)29.29 "Hg (Sep 12, 10:53 PM)
Average50 °F77%29.71 "Hg
* Reported Sep 4 12:53 AM — Sep 19 12:53 AM, Nome, Weather by CustomWeather, © 2014

Note: Actual official high and low records may vary slightly from our data, if they occured in-between our weather recording intervals... More about our weather records

Advertising

Nome weather history for previous 24 hours

 ConditionsComfort  
Time TempWeatherWind HumidityBarometerVisibility
12:53 AM
Sep 19
43 °FPassing clouds.10 mph76%29.34 "Hg10 mi
11:53 PM
Sep 18
43 °FPassing clouds.8 mph76%29.33 "Hg10 mi
10:53 PM43 °FClear.9 mph76%29.32 "Hg10 mi
9:53 PM44 °FScattered clouds.15 mph73%29.32 "Hg10 mi
8:53 PM46 °FScattered clouds.16 mph68%29.31 "Hg10 mi
7:53 PM49 °FScattered clouds.17 mph66%29.31 "Hg10 mi
6:53 PM51 °FScattered clouds.18 mph61%29.31 "Hg10 mi
5:53 PM52 °FScattered clouds.24 mph59%29.31 "Hg10 mi
4:53 PM53 °FScattered clouds.20 mph59%29.30 "Hg10 mi
3:53 PM53 °FScattered clouds.20 mph59%29.31 "Hg10 mi
2:53 PM53 °FScattered clouds.21 mph59%29.31 "Hg10 mi
1:53 PM52 °FScattered clouds.20 mph61%29.31 "Hg10 mi
12:53 PM51 °FScattered clouds.21 mph63%29.31 "Hg10 mi
11:53 AM50 °FScattered clouds.21 mph66%29.32 "Hg10 mi
10:53 AM48 °FScattered clouds.17 mph71%29.32 "Hg10 mi
9:53 AM47 °FScattered clouds.16 mph74%29.33 "Hg10 mi
8:53 AM47 °FPassing clouds.No wind80%29.32 "Hg10 mi
7:53 AM46 °FPassing clouds.13 mph86%29.32 "Hg10 mi
6:53 AM47 °FPartly cloudy.14 mph83%29.31 "Hg10 mi
5:53 AM47 °FOvercast.10 mph80%29.31 "Hg10 mi
4:53 AM47 °FPassing clouds.9 mph83%29.30 "Hg10 mi
3:53 AM47 °FOvercast.12 mph80%29.30 "Hg10 mi
2:53 AM47 °FMostly cloudy.12 mph83%29.30 "Hg10 mi
Weather by CustomWeather, © 2014

See weather overviewHow to use our weather pages